Location: Arie?eni
(46.4833°N, 22.7667°E)
Time: 04:52:43
(UTC+00:00)

Daily predictions for brighter satellites

Satellite Brightness Start Highest point End
(mag) Time Altitude Azimuth Time Altitude Azimuth Time Altitude Azimuth
Cosmos 1943 Rocket 3.3 02:25:02 41° E 02:25:02 41° E 02:29:41 10° NE
CENTAUR R/B 3.0 02:28:55 56° ESE 02:28:55 56° ESE 02:35:15 10° NE
Cosmos 2297 4.3 02:39:06 55° E 02:39:06 55° E 02:44:23 10° NE
NOSS 3-2 (A) 3.8 02:40:24 58° NE 02:40:24 58° NE 02:45:36 10° NE
NOSS 3-2 (C) 3.8 02:46:05 50° SE 02:46:48 53° ESE 02:52:55 10° NE
Cosmos 2278 Rocket 4.2 02:51:58 16° N 02:51:58 16° N 02:53:17 10° NNE
Cosmos 2344 3.3 02:53:31 73° W 02:54:11 79° NW 03:02:04 10° NE
Meteor 2-3 Rocket 4.0 02:54:02 10° S 02:59:37 66° E 03:05:18 10° NNE
Cosmos 968 Rocket 4.0 03:02:25 27° S 03:05:00 55° ESE 03:10:01 10° NNE
BREEZE M DEB (TANK) 4.2 03:07:48 35° ENE 03:07:48 35° ENE 03:09:20 10° ENE
Genesis I 4.3 03:14:32 42° SE 03:14:32 42° SE 03:17:19 10° SE
Cosmos 921 Rocket 3.6 03:13:45 56° NE 03:13:56 56° ENE 03:18:19 10° SSE
Meteor 1-26 Rocket 4.3 03:11:22 29° N 03:14:38 82° E 03:20:25 10° SSE
USA 238 DEB 3.5 03:12:40 48° SW 03:14:42 88° SE 03:21:37 10° NE
USA 238 3.5 03:12:43 47° SW 03:14:49 88° SE 03:21:43 10° NE
BREEZE-M DEB (TANK) 3.1 03:15:56 65° SSW 03:15:59 65° SSW 03:26:49 10° SE
Cosmos 1812 3.6 03:21:51 44° NE 03:22:21 47° ENE 03:26:04 10° SSE
Cosmos 2034 Rocket 4.3 03:24:11 45° SW 03:24:11 45° SW 03:28:52 10° SSW
USA 215 3.3 03:16:45 10° ESE 03:23:16 76° NNE 03:25:43 42° NW
Cosmos 1816 Rocket 4.4 03:19:01 10° SSW 03:25:09 63° WNW 03:31:25 10° N
Cosmos 1151 Rocket 3.8 03:24:41 21° N 03:27:24 51° ENE 03:31:40 10° SSE
Cosmos 2369 Rocket 2.3 03:32:59 10° SSW 03:38:32 73° ESE 03:44:08 10° NNE
Cosmos 1782 3.9 03:40:17 31° SSW 03:40:17 31° SSW 03:42:29 10° S
Meteor 1-31 Rocket 3.3 03:35:21 10° NNE 03:39:12 59° E 03:43:03 10° S
Cosmos 1328 Rocket 4.4 03:35:35 10° N 03:39:52 49° ENE 03:44:05 10° SSE
SJ-12 3.8 03:39:36 10° NNE 03:43:46 88° WNW 03:47:54 10° SSW
Cosmos 1634 Rocket 3.9 03:38:58 10° NNW 03:45:15 74° W 03:51:27 10° S
COSMO-SKYMED 1 2.4 03:42:27 10° S 03:46:48 80° WSW 03:48:36 35° NNW
Cosmos 1862 3.8 03:43:01 10° S 03:46:53 58° E 03:50:47 10° NNE
FALCON 9 DEB 3.6 03:48:04 49° NNE 03:48:04 49° NNE 03:50:48 10° NE
MOS 1-B Rocket 4.0 03:43:41 10° S 03:49:58 59° WSW 03:54:14 18° NNW
Cosmos 1867 4.2 03:50:15 34° WSW 03:50:15 34° WSW 03:55:00 10° S
Cosmos 836 Rocket 4.4 03:47:33 24° NNW 03:50:47 90° WNW 03:56:01 10° SSE
Tsikada Rocket 4.1 03:46:48 10° SSW 03:52:47 50° WNW 03:58:53 10° N
H-2A R/B 2.5 03:49:14 10° N 03:52:56 68° WNW 03:56:39 10° SSW
Cosmos 1656 Rocket 3.6 03:57:13 10° SSW 04:02:37 81° ESE 04:08:06 10° NNE
Cosmos 1503 Rocket 4.4 03:59:03 10° S 04:04:15 65° ESE 04:09:32 10° NNE
CZ-4B R/B 4.2 04:05:02 10° ESE 04:07:15 17° ENE 04:09:29 10° NNE
CZ-2C R/B 2.7 04:02:37 10° S 04:08:01 55° W 04:13:19 10° NNW
Cosmos 1943 Rocket 2.8 04:06:39 30° W 04:08:12 35° NW 04:13:23 10° NNE
CZ-4C R/B 2.5 04:08:19 10° S 04:11:27 71° WSW 04:12:32 37° NNW
Cosmos 1486 Rocket 3.9 04:06:37 10° SSW 04:11:54 67° WNW 04:17:11 10° NNE
Cosmos 2180 Rocket 4.4 04:09:13 10° N 04:15:26 87° W 04:21:34 10° S
Meteor 1-27 Rocket 4.3 04:12:12 10° N 04:17:46 59° ENE 04:23:24 10° SSE
SL-8 R/B 3.6 04:16:23 29° WNW 04:18:52 83° SSW 04:23:39 10° ESE
CENTAUR R/B 3.1 04:16:08 23° W 04:19:30 40° NW 04:26:23 10° NE
Cosmos 1515 Rocket 3.8 04:15:46 10° N 04:20:09 71° E 04:24:28 10° SSE
Cosmos 773 Rocket 4.2 04:19:06 10° NNW 04:24:20 71° ENE 04:29:31 10° SSE
FALCON 9 DEB 4.0 04:25:20 25° NNW 04:25:35 25° NNW 04:28:05 10° NE
Iridium 2 4.3 04:23:32 10° SW 04:26:57 32° W 04:30:23 10° NNW
NOAA 11 4.2 04:21:42 10° NNE 04:27:13 86° WNW 04:32:42 10° SSW
SJ 16-02 2.8 04:24:59 10° S 04:29:04 40° ESE 04:33:11 10° NE
NOSS 3-2 (A) 4.4 04:27:50 20° WNW 04:30:46 30° NNW 04:36:40 10° NNE
FALCON 9 DEB 4.2 04:31:50 21° NNW 04:32:22 22° N 04:34:43 10° NE
NOAA 12 4.4 04:27:50 10° NNE 04:33:07 71° ESE 04:38:21 10° S
Meteor 2-8 Rocket 4.4 04:27:56 10° NNW 04:33:59 62° W 04:40:00 10° S
FALCON 9 DEB 4.2 04:33:52 20° NNW 04:34:30 22° N 04:36:49 10° NE
Envisat 3.5 04:30:18 10° N 04:34:53 35° WNW 04:39:26 10° SW
Meteor 2-6 Rocket 4.4 04:31:38 10° NNW 04:36:47 45° W 04:41:52 10° SSW
NOSS 3-2 (C) 4.0 04:33:35 15° W 04:37:56 38° NW 04:44:09 10° NNE
Cosmos 1340 Rocket 3.7 04:35:00 10° S 04:38:50 52° E 04:42:43 10° NNE
Cosmos 1500 Rocket 4.1 04:36:18 10° S 04:40:42 64° E 04:45:08 10° NNE
Cosmos 2098 Rocket 3.8 04:38:50 10° SW 04:42:18 29° WNW 04:46:32 10° N
SL-27 R/B 2.4 04:40:47 10° NNW 04:44:23 89° ENE 04:47:56 10° SSE
Cosmos 1939 Rocket 3.0 04:40:48 10° NNE 04:44:46 77° ESE 04:48:39 10° S
ATLAS 3B R/B 3.8 04:40:18 10° S 04:46:28 48° ESE 04:52:57 10° NE
FALCON 9 DEB 4.2 04:49:58 16° NW 04:51:20 23° N 04:53:43 10° NE
Meteor 1-10 Rocket 4.5 04:47:29 10° NNW 04:52:46 46° W 04:58:01 10° SSW
Okean O Rocket 4.5 04:50:07 10° NE 04:53:29 21° E 04:56:50 10° SE
Okean 3 Rocket 4.4 04:49:46 10° SW 04:53:49 31° WNW 04:57:54 10° N
H-2A R/B 2.1 04:50:52 10° S 04:55:04 64° WSW 04:59:25 10° NNW
ATLAS 5 CENTAUR R/B 2.3 04:52:34 10° SSW 04:56:16 50° ESE 05:00:23 10° NE
Cosmos 1174 4.4 04:54:33 10° SSW 04:57:24 45° ESE 05:00:23 10° NE
Cosmos 1812 4.4 04:56:57 13° WNW 04:57:40 14° W 04:59:39 10° WSW
ADEOS 3.9 04:53:31 10° N 04:58:26 42° WNW 05:03:18 10° SW
Cosmos 158 Rocket 4.4 04:54:57 10° NNW 05:00:02 66° ENE 05:05:14 10° SSE
Cosmos 1354 Rocket 4.2 04:59:19 10° SW 05:04:25 49° WNW 05:09:35 10° NNE
CZ-2C R/B 3.1 05:01:53 10° N 05:06:33 49° WNW 05:11:22 10° SW
USA 215 4.0 05:00:40 10° SSE 05:06:37 37° SW 05:12:36 10° WNW
USA 238 4.5 05:00:50 10° W 05:06:37 30° NNW 05:12:43 10° NNE
Cosmos 1515 3.6 05:07:07 10° NNW 05:10:56 79° W 05:14:43 10° S
Okean 1 4.0 05:07:12 10° N 05:11:07 56° ENE 05:14:59 10° SSE
Meteor PRIRODA 4.4 05:08:41 10° N 05:11:52 30° WNW 05:15:03 10° SW
Meteor 1-31 Rocket 4.5 05:11:07 10° NNW 05:13:07 14° WNW 05:15:08 10° W
NOSS 2 (A) 4.2 05:13:29 10° NW 05:16:16 78° NE 05:18:44 10° SE
Cosmos 2297 Rocket 3.3 05:12:24 10° NNW 05:17:46 41° NE 05:23:06 10° SE
BREEZE-M DEB (TANK) 2.9 05:11:05 10° WSW 05:20:14 83° SSE 05:23:08 10° ENE
FengYun 1-2 T 4.3 05:16:25 10° N 05:21:49 59° WNW 05:27:11 10° SSW
SMAP 3.1 05:17:46 10° N 05:22:21 58° WNW 05:26:55 10° SSW
Cosmos 2369 Rocket 3.3 05:18:48 10° W 05:23:09 23° NW 05:27:33 10° N
FALCON 9 DEB 4.3 05:21:41 10° WNW 05:24:38 27° N 05:27:36 10° NE
Nadezhda 4 Rocket 4.3 05:20:32 10° SW 05:26:22 44° WNW 05:32:19 10° N
